CZ-6A DEB

Satellite information

Favourite Embed

Satellite Type and Status

DEBRISIN ORBIT

Key statistics

Satellite CZ-6A DEB at a glance.

Uptime

1129

Days in orbit

Revolutions

≈ 14.2

Per day

Orbit

SSO

Sun Synchronous Orbit

Inclination

98.8

Latest

Satellite identification and parameters

Extended collection of information and parameters for CZ-6A DEB.

Object identification

Identified? True

Debris? True

Object name: CZ-6A DEB

International designator: 2022-151DG

Object number (NORAD): 54384

Object ID (CCSDS): 54384

Country: PEOPLES REPUBLIC OF CHINA (PRC)

Current information (Y/N): Y

RCS size: SMALL

Orbital parameters

Period: 101.209 minutes

Inclination: 98.7694 deg

SMA: 7194.025 km

Apoapsis: 841.838 km

Periapsis: 789.941 km

RAAN: 359.4611 deg

Eccentricy: 0.003607

Argument of periapsis: 354.5387 deg

Mean anomaly: 5.5392 deg

Mean motion: 14.22803351 rev/day

Mean motion (dot): 0.0000246 rev/day2

B* drag term: 0.0011087583 1/REarth

Two-line elements (TLE)

Creation date: Dec. 14, 2025, 3:07 a.m.

Reference frame: TEME

Reference center: EARTH

Epoch: Dec. 13, 2025, 2:26 p.m. UTC

TLE line 0: 0 CZ-6A DEB

TLE line 1: 1 54384U 22151DG 25347.60160435 .00002460 00000-0 11088-2 0 9993

TLE line 2: 2 54384 98.7694 359.4611 0036070 354.5387 5.5392 14.22803351159434

Live tracking on map

Real-time ground track for satellite CZ-6A DEB.

In-orbit conjunctions

A list of the most updated potential collisions computed for object CZ-6A DEB.

Target Orbit TCA Probability of collision Miss distance Type
CZ-6A DEB LEO 2025-10-19 03:38:11 0.0002021981 304.0 (m) DEBRIS
CZ-6A DEB SSO 2025-09-27 11:08:35 0.00017421 347.0 (m) DEBRIS

Associated space launch

Chinese satellite reported for atmospheric/ocean/environmental/spatial parameter research purposes, details TBD.

CZ-6A DEB was lifted into orbit during the mission ‘Long March 6A | Yunhai 3’, on board a Long March 6A space rocket.

The launch took place on Nov. 11, 2022, 10:52 p.m. from Launch Complex 9A.

For more information about the launch, click the button.

Launch to space Long March 6A | Yunhai 3
Long March 6A | Yunhai 3

Agency: N/A

Status: Launch Successful

Launch date: Nov. 11, 2022, 10:52 p.m. UTC

Rocket: Long March 6A

Launch pad: Launch Complex 9A

Location: Taiyuan Satellite Launch Center, People's Republic of China

...

Latest news about this satellite

There are no fresh news available about this satellite. Check back as we update our databases every day.


Newsletter sign-up

Weekly statistics, charts and insights to help you stay on top of the space industry.